Time,TemperatureF,DewpointF,PressureIn,WindDirection,WindDirectionDegrees,WindSpeedMPH,WindSpeedGustMPH,Humidity,HourlyPrecipIn,Conditions,Clouds,dailyrainin,SoftwareType,DateUTC
2013-03-25 00:02:00,60.0,51.0,29.44,SSE,161,2.0,3.0,73,0.00,,,0.00,,2013-03-24 23:02:00,
2013-03-25 00:11:00,60.0,51.0,29.44,SSE,161,2.0,3.0,73,0.00,,,0.00,,2013-03-24 23:11:00,
2013-03-25 00:22:00,60.0,51.0,29.44,SE,140,3.0,4.0,73,0.00,,,0.00,,2013-03-24 23:22:00,
2013-03-25 00:32:00,60.0,51.0,29.41,ENE,69,8.0,10.0,71,0.00,,,0.00,,2013-03-24 23:32:00,
2013-03-25 00:41:00,60.0,51.0,29.41,ENE,69,8.0,10.0,71,0.00,,,0.00,,2013-03-24 23:41:00,
2013-03-25 00:52:00,60.0,51.0,29.41,East,101,6.0,11.0,72,0.00,,,0.00,,2013-03-24 23:52:00,
2013-03-25 01:02:00,61.0,52.0,29.41,SSE,150,10.0,10.0,72,0.00,,,0.00,,2013-03-25 00:02:00,
2013-03-25 01:11:00,61.0,52.0,29.41,SSE,150,10.0,10.0,72,0.00,,,0.00,,2013-03-25 00:11:00,
2013-03-25 01:22:00,60.0,52.0,29.41,SSE,150,11.0,15.0,75,0.00,,,0.00,,2013-03-25 00:22:00,
2013-03-25 01:32:00,60.0,53.0,29.39,SE,128,12.0,18.0,79,0.00,,,0.00,,2013-03-25 00:32:00,
2013-03-25 01:42:00,60.0,53.0,29.39,SE,128,12.0,18.0,79,0.00,,,0.00,,2013-03-25 00:42:00,
2013-03-25 01:52:00,60.0,53.0,29.40,SSE,155,9.0,16.0,79,0.00,,,0.00,,2013-03-25 00:52:00,
2013-03-25 02:02:00,60.0,53.0,29.40,ESE,114,8.0,20.0,79,0.00,,,0.00,,2013-03-25 01:02:00,
2013-03-25 02:11:00,60.0,53.0,29.40,ESE,114,8.0,20.0,79,0.00,,,0.00,,2013-03-25 01:11:00,
2013-03-25 02:21:00,60.0,53.0,29.37,East,92,17.0,22.0,78,0.00,,,0.00,,2013-03-25 01:21:00,
2013-03-25 02:32:00,61.0,53.0,29.36,ESE,121,7.0,16.0,76,0.00,,,0.00,,2013-03-25 01:32:00,
2013-03-25 02:42:00,61.0,53.0,29.36,ESE,121,7.0,16.0,76,0.00,,,0.00,,2013-03-25 01:42:00,
2013-03-25 02:52:00,61.0,53.0,29.36,East,97,11.0,17.0,74,0.00,,,0.00,,2013-03-25 01:52:00,
2013-03-25 03:01:00,61.0,52.0,29.37,ESE,106,12.0,12.0,73,0.00,,,0.00,,2013-03-25 02:01:00,
2013-03-25 03:11:00,61.0,52.0,29.37,ESE,106,12.0,12.0,73,0.00,,,0.00,,2013-03-25 02:11:00,
2013-03-25 03:22:00,60.0,53.0,29.36,South,169,3.0,13.0,79,0.00,,,0.00,,2013-03-25 02:22:00,
2013-03-25 03:32:00,59.0,54.0,29.36,SSE,150,8.0,23.0,84,0.00,,,0.00,,2013-03-25 02:32:00,
2013-03-25 03:42:00,59.0,54.0,29.36,SSE,150,8.0,23.0,84,0.00,,,0.00,,2013-03-25 02:42:00,
2013-03-25 03:52:00,59.0,54.0,29.35,SE,134,6.0,24.0,85,0.00,,,0.00,,2013-03-25 02:52:00,
2013-03-25 04:02:00,58.0,54.0,29.35,SSE,157,3.0,17.0,88,0.00,,,0.00,,2013-03-25 03:02:00,
2013-03-25 04:11:00,58.0,54.0,29.35,SSE,157,3.0,17.0,88,0.00,,,0.00,,2013-03-25 03:11:00,
2013-03-25 04:22:00,58.0,55.0,29.35,SSE,162,6.0,13.0,89,0.00,,,0.00,,2013-03-25 03:22:00,
2013-03-25 04:33:00,57.0,54.0,29.35,South,181,4.0,10.0,91,0.00,,,0.00,,2013-03-25 03:33:00,
2013-03-25 04:42:00,57.0,54.0,29.35,SSW,198,5.0,10.0,91,0.00,,,0.00,,2013-03-25 03:42:00,
2013-03-25 04:52:00,57.0,54.0,29.35,SSW,198,5.0,10.0,91,0.00,,,0.00,,2013-03-25 03:52:00,
2013-03-25 05:02:00,57.0,55.0,29.34,SSW,198,9.0,16.0,92,0.00,,,0.00,,2013-03-25 04:02:00,
2013-03-25 05:12:00,57.0,55.0,29.34,SSW,198,9.0,16.0,92,0.00,,,0.00,,2013-03-25 04:12:00,
2013-03-25 05:22:00,57.0,55.0,29.34,SW,221,7.0,17.0,93,0.00,,,0.00,,2013-03-25 04:22:00,
2013-03-25 05:32:00,57.0,55.0,29.34,SW,219,11.0,17.0,93,0.00,,,0.00,,2013-03-25 04:32:00,
2013-03-25 05:42:00,57.0,55.0,29.34,SW,219,11.0,17.0,93,0.00,,,0.00,,2013-03-25 04:42:00,
2013-03-25 05:52:00,57.0,55.0,29.34,SSW,209,10.0,17.0,94,0.00,,,0.00,,2013-03-25 04:52:00,
2013-03-25 06:02:00,57.0,55.0,29.34,SSW,202,8.0,15.0,94,0.01,,,0.01,,2013-03-25 05:02:00,
2013-03-25 06:11:00,57.0,55.0,29.34,SSW,202,8.0,15.0,94,0.01,,,0.01,,2013-03-25 05:11:00,
2013-03-25 06:21:00,56.0,54.0,29.33,SW,215,10.0,15.0,94,0.05,,,0.05,,2013-03-25 05:21:00,
2013-03-25 06:32:00,56.0,54.0,29.34,WSW,240,8.0,12.0,93,0.06,,,0.06,,2013-03-25 05:32:00,
2013-03-25 06:42:00,56.0,54.0,29.34,WSW,240,8.0,12.0,93,0.06,,,0.06,,2013-03-25 05:42:00,
2013-03-25 06:51:00,56.0,54.0,29.34,SW,217,3.0,12.0,93,0.06,,,0.06,,2013-03-25 05:51:00,
2013-03-25 07:02:00,56.0,54.0,29.34,SW,217,7.0,12.0,92,0.06,,,0.06,,2013-03-25 06:02:00,
2013-03-25 07:11:00,56.0,54.0,29.34,SW,217,7.0,12.0,92,0.06,,,0.06,,2013-03-25 06:11:00,
2013-03-25 07:21:00,56.0,53.0,29.34,SW,223,9.0,14.0,91,0.06,,,0.06,,2013-03-25 06:21:00,
2013-03-25 07:32:00,56.0,52.0,29.34,WSW,240,7.0,16.0,88,0.01,,,0.07,,2013-03-25 06:32:00,
2013-03-25 07:42:00,56.0,52.0,29.34,WSW,240,7.0,16.0,88,0.01,,,0.07,,2013-03-25 06:42:00,
2013-03-25 07:51:00,56.0,52.0,29.33,SW,229,9.0,10.0,88,0.01,,,0.07,,2013-03-25 06:51:00,
2013-03-25 08:01:00,56.0,52.0,29.33,WSW,240,7.0,13.0,87,0.01,,,0.07,,2013-03-25 07:01:00,
2013-03-25 08:11:00,56.0,52.0,29.33,WSW,240,7.0,13.0,87,0.01,,,0.07,,2013-03-25 07:11:00,
2013-03-25 08:21:00,56.0,51.0,29.34,SW,227,9.0,14.0,84,0.01,,,0.07,,2013-03-25 07:21:00,
2013-03-25 08:31:00,56.0,50.0,29.34,WSW,248,6.0,16.0,81,0.00,,,0.07,,2013-03-25 07:31:00,
2013-03-25 08:42:00,56.0,50.0,29.34,WSW,248,6.0,16.0,81,0.00,,,0.07,,2013-03-25 07:42:00,
2013-03-25 08:52:00,57.0,52.0,29.35,SSW,207,10.0,12.0,82,0.00,,,0.07,,2013-03-25 07:52:00,
2013-03-25 09:02:00,57.0,52.0,29.34,SW,228,12.0,13.0,83,0.00,,,0.07,,2013-03-25 08:02:00,
2013-03-25 09:11:00,57.0,52.0,29.34,SW,228,12.0,13.0,83,0.00,,,0.07,,2013-03-25 08:11:00,
2013-03-25 09:22:00,57.0,52.0,29.34,SW,231,7.0,15.0,84,0.00,,,0.07,,2013-03-25 08:22:00,
2013-03-25 09:32:00,57.0,52.0,29.34,WSW,250,5.0,13.0,83,0.00,,,0.07,,2013-03-25 08:32:00,
2013-03-25 09:42:00,57.0,52.0,29.34,WSW,250,5.0,13.0,83,0.00,,,0.07,,2013-03-25 08:42:00,
2013-03-25 09:52:00,57.0,52.0,29.34,South,171,6.0,13.0,83,0.00,,,0.07,,2013-03-25 08:52:00,
2013-03-25 10:02:00,57.0,52.0,29.34,WSW,245,7.0,12.0,83,0.00,,,0.07,,2013-03-25 09:02:00,
2013-03-25 10:11:00,57.0,52.0,29.34,WSW,245,7.0,12.0,83,0.00,,,0.07,,2013-03-25 09:11:00,
2013-03-25 10:21:00,57.0,52.0,29.34,SW,218,7.0,12.0,83,0.00,,,0.07,,2013-03-25 09:21:00,
2013-03-25 10:32:00,57.0,52.0,29.33,SW,225,11.0,15.0,82,0.00,,,0.07,,2013-03-25 09:32:00,
2013-03-25 10:42:00,57.0,52.0,29.33,SW,225,11.0,15.0,82,0.00,,,0.07,,2013-03-25 09:42:00,
2013-03-25 10:52:00,58.0,52.0,29.32,SSW,196,12.0,13.0,81,0.00,,,0.07,,2013-03-25 09:52:00,
2013-03-25 11:02:00,58.0,52.0,29.32,SW,230,6.0,14.0,81,0.00,,,0.07,,2013-03-25 10:02:00,
2013-03-25 11:12:00,58.0,52.0,29.32,SW,230,6.0,14.0,81,0.00,,,0.07,,2013-03-25 10:12:00,
2013-03-25 11:22:00,58.0,52.0,29.32,SSW,207,9.0,14.0,81,0.00,,,0.07,,2013-03-25 10:22:00,
2013-03-25 11:32:00,58.0,52.0,29.31,SW,215,13.0,16.0,81,0.00,,,0.07,,2013-03-25 10:32:00,
2013-03-25 11:42:00,58.0,52.0,29.31,SW,215,13.0,16.0,81,0.00,,,0.07,,2013-03-25 10:42:00,
2013-03-25 11:52:00,58.0,53.0,29.31,SSW,213,8.0,16.0,82,0.00,,,0.07,,2013-03-25 10:52:00,
2013-03-25 12:02:00,57.0,51.0,29.31,SW,215,10.0,11.0,81,0.00,,,0.07,,2013-03-25 11:02:00,
2013-03-25 12:12:00,58.0,52.0,29.31,WSW,246,3.0,12.0,80,0.00,,,0.07,,2013-03-25 11:12:00,
2013-03-25 12:22:00,58.0,52.0,29.31,WSW,246,3.0,12.0,80,0.00,,,0.07,,2013-03-25 11:22:00,
2013-03-25 12:32:00,58.0,53.0,29.30,SW,215,7.0,10.0,82,0.00,,,0.07,,2013-03-25 11:32:00,
2013-03-25 12:42:00,58.0,53.0,29.30,SW,215,7.0,10.0,82,0.00,,,0.07,,2013-03-25 11:42:00,
2013-03-25 12:51:00,57.0,52.0,29.31,SW,236,10.0,12.0,82,0.00,,,0.07,,2013-03-25 11:51:00,
2013-03-25 13:02:00,59.0,52.0,29.31,SSW,205,10.0,11.0,78,0.00,,,0.07,,2013-03-25 12:02:00,
2013-03-25 13:11:00,58.0,52.0,29.31,South,183,7.0,12.0,79,0.00,,,0.07,,2013-03-25 12:11:00,
2013-03-25 13:22:00,58.0,52.0,29.31,South,183,7.0,12.0,79,0.00,,,0.07,,2013-03-25 12:22:00,
2013-03-25 13:32:00,58.0,52.0,29.31,SSW,211,9.0,11.0,79,0.00,,,0.07,,2013-03-25 12:32:00,
2013-03-25 13:42:00,58.0,52.0,29.31,SSW,211,9.0,11.0,79,0.00,,,0.07,,2013-03-25 12:42:00,
2013-03-25 13:52:00,58.0,52.0,29.31,SSW,200,7.0,10.0,81,0.00,,,0.07,,2013-03-25 12:52:00,
2013-03-25 14:02:00,55.0,51.0,29.31,SW,223,7.0,13.0,86,0.01,,,0.08,,2013-03-25 13:02:00,
2013-03-25 14:11:00,55.0,51.0,29.31,SW,223,7.0,13.0,86,0.01,,,0.08,,2013-03-25 13:11:00,
2013-03-25 14:21:00,56.0,52.0,29.31,WSW,249,3.0,11.0,85,0.01,,,0.08,,2013-03-25 13:21:00,
2013-03-25 14:32:00,57.0,51.0,29.31,WSW,249,7.0,17.0,81,0.01,,,0.08,,2013-03-25 13:32:00,
2013-03-25 14:42:00,57.0,51.0,29.31,WSW,249,7.0,17.0,81,0.01,,,0.08,,2013-03-25 13:42:00,
2013-03-25 14:52:00,58.0,52.0,29.31,WSW,246,8.0,15.0,80,0.01,,,0.08,,2013-03-25 13:52:00,
2013-03-25 15:02:00,58.0,51.0,29.31,West,277,5.0,8.0,78,0.00,,,0.08,,2013-03-25 14:02:00,
2013-03-25 15:11:00,58.0,51.0,29.31,West,277,5.0,8.0,78,0.00,,,0.08,,2013-03-25 14:11:00,
2013-03-25 15:22:00,58.0,52.0,29.31,West,277,10.0,14.0,79,0.00,,,0.08,,2013-03-25 14:22:00,
2013-03-25 15:32:00,58.0,52.0,29.31,WNW,288,12.0,17.0,79,0.00,,,0.08,,2013-03-25 14:32:00,
2013-03-25 15:41:00,58.0,52.0,29.31,WNW,288,12.0,17.0,79,0.00,,,0.08,,2013-03-25 14:41:00,
2013-03-25 15:52:00,59.0,52.0,29.32,WNW,298,6.0,17.0,78,0.00,,,0.08,,2013-03-25 14:52:00,
2013-03-25 16:02:00,58.0,52.0,29.32,WNW,284,3.0,14.0,79,0.00,,,0.08,,2013-03-25 15:02:00,
2013-03-25 16:12:00,58.0,52.0,29.32,WNW,284,3.0,14.0,79,0.00,,,0.08,,2013-03-25 15:12:00,
2013-03-25 16:21:00,57.0,51.0,29.32,West,281,11.0,16.0,81,0.00,,,0.08,,2013-03-25 15:21:00,
2013-03-25 16:32:00,59.0,52.0,29.33,WNW,287,13.0,17.0,77,0.00,,,0.08,,2013-03-25 15:32:00,
2013-03-25 16:42:00,59.0,52.0,29.33,WNW,287,13.0,17.0,77,0.00,,,0.08,,2013-03-25 15:42:00,
2013-03-25 16:52:00,57.0,51.0,29.33,WNW,290,13.0,17.0,79,0.00,,,0.08,,2013-03-25 15:52:00,
2013-03-25 17:02:00,57.0,51.0,29.34,West,279,10.0,17.0,80,0.00,,,0.08,,2013-03-25 16:02:00,
2013-03-25 17:12:00,57.0,51.0,29.34,West,279,10.0,17.0,80,0.00,,,0.08,,2013-03-25 16:12:00,
2013-03-25 17:22:00,57.0,51.0,29.34,West,279,10.0,17.0,80,0.00,,,0.08,,2013-03-25 16:22:00,
2013-03-25 17:32:00,57.0,51.0,29.35,West,281,9.0,13.0,81,0.00,,,0.08,,2013-03-25 16:32:00,
2013-03-25 17:42:00,57.0,51.0,29.35,West,281,9.0,13.0,81,0.00,,,0.08,,2013-03-25 16:42:00,
2013-03-25 17:52:00,56.0,50.0,29.35,NW,312,8.0,15.0,81,0.00,,,0.08,,2013-03-25 16:52:00,
2013-03-25 18:02:00,56.0,50.0,29.36,NW,319,9.0,16.0,81,0.00,,,0.08,,2013-03-25 17:02:00,
2013-03-25 18:11:00,56.0,50.0,29.36,NW,319,9.0,16.0,81,0.00,,,0.08,,2013-03-25 17:11:00,
2013-03-25 18:22:00,56.0,50.0,29.37,West,267,8.0,12.0,81,0.00,,,0.08,,2013-03-25 17:22:00,
2013-03-25 18:32:00,56.0,51.0,29.38,West,273,14.0,14.0,83,0.00,,,0.08,,2013-03-25 17:32:00,
2013-03-25 18:42:00,56.0,51.0,29.38,West,273,14.0,14.0,83,0.00,,,0.08,,2013-03-25 17:42:00,
2013-03-25 18:51:00,56.0,51.0,29.38,West,281,11.0,14.0,83,0.00,,,0.08,,2013-03-25 17:51:00,
2013-03-25 19:03:00,56.0,51.0,29.38,WSW,245,3.0,11.0,84,0.00,,,0.08,,2013-03-25 18:03:00,
2013-03-25 19:11:00,56.0,51.0,29.38,WSW,245,3.0,11.0,84,0.00,,,0.08,,2013-03-25 18:11:00,
2013-03-25 19:22:00,56.0,52.0,29.38,WNW,294,9.0,10.0,85,0.00,,,0.08,,2013-03-25 18:22:00,
2013-03-25 19:32:00,56.0,51.0,29.39,West,260,6.0,17.0,84,0.00,,,0.08,,2013-03-25 18:32:00,
2013-03-25 19:42:00,56.0,51.0,29.39,West,260,6.0,17.0,84,0.00,,,0.08,,2013-03-25 18:42:00,
2013-03-25 19:51:00,56.0,51.0,29.40,NW,310,7.0,16.0,84,0.00,,,0.08,,2013-03-25 18:51:00,
2013-03-25 20:02:00,56.0,51.0,29.41,West,277,11.0,14.0,84,0.00,,,0.08,,2013-03-25 19:02:00,
2013-03-25 20:11:00,56.0,51.0,29.41,West,277,11.0,14.0,84,0.00,,,0.08,,2013-03-25 19:11:00,
2013-03-25 20:21:00,56.0,52.0,29.42,NW,304,11.0,15.0,85,0.00,,,0.08,,2013-03-25 19:21:00,
2013-03-25 20:32:00,56.0,52.0,29.43,WNW,291,11.0,17.0,85,0.00,,,0.08,,2013-03-25 19:32:00,
2013-03-25 20:42:00,56.0,52.0,29.43,WNW,291,11.0,17.0,85,0.00,,,0.08,,2013-03-25 19:42:00,
2013-03-25 20:52:00,56.0,51.0,29.44,West,281,17.0,17.0,84,0.00,,,0.08,,2013-03-25 19:52:00,
2013-03-25 21:01:00,56.0,52.0,29.44,West,272,12.0,17.0,85,0.00,,,0.08,,2013-03-25 20:01:00,
2013-03-25 21:11:00,56.0,52.0,29.44,West,272,12.0,17.0,85,0.00,,,0.08,,2013-03-25 20:11:00,
2013-03-25 21:22:00,56.0,52.0,29.44,West,281,8.0,19.0,86,0.00,,,0.08,,2013-03-25 20:22:00,
2013-03-25 21:32:00,55.0,51.0,29.44,WNW,292,11.0,16.0,87,0.00,,,0.08,,2013-03-25 20:32:00,
2013-03-25 21:41:00,55.0,51.0,29.44,WNW,292,11.0,16.0,87,0.00,,,0.08,,2013-03-25 20:41:00,
2013-03-25 21:52:00,55.0,51.0,29.44,West,271,13.0,18.0,87,0.00,,,0.08,,2013-03-25 20:52:00,
2013-03-25 22:02:00,55.0,52.0,29.45,West,270,10.0,17.0,91,0.02,,,0.10,,2013-03-25 21:02:00,
2013-03-25 22:11:00,55.0,52.0,29.45,West,270,10.0,17.0,91,0.02,,,0.10,,2013-03-25 21:11:00,
2013-03-25 22:21:00,55.0,52.0,29.45,NW,317,10.0,19.0,91,0.03,,,0.11,,2013-03-25 21:21:00,
2013-03-25 22:32:00,55.0,52.0,29.45,WNW,293,4.0,16.0,90,0.03,,,0.11,,2013-03-25 21:32:00,
2013-03-25 22:42:00,55.0,52.0,29.45,WNW,293,4.0,16.0,90,0.03,,,0.11,,2013-03-25 21:42:00,
2013-03-25 22:52:00,55.0,52.0,29.46,NW,310,17.0,17.0,89,0.03,,,0.11,,2013-03-25 21:52:00,
2013-03-25 23:03:00,55.0,51.0,29.46,WNW,294,17.0,17.0,86,0.01,,,0.11,,2013-03-25 22:03:00,
2013-03-25 23:12:00,55.0,51.0,29.46,WNW,294,17.0,17.0,86,0.01,,,0.11,,2013-03-25 22:12:00,
2013-03-25 23:22:00,55.0,51.0,29.47,NW,311,8.0,17.0,86,0.01,,,0.11,,2013-03-25 22:22:00,
2013-03-25 23:32:00,55.0,50.0,29.47,WNW,297,13.0,21.0,84,0.00,,,0.11,,2013-03-25 22:32:00,
2013-03-25 23:42:00,55.0,50.0,29.47,WNW,297,13.0,21.0,84,0.00,,,0.11,,2013-03-25 22:42:00,
2013-03-25 23:52:00,55.0,50.0,29.47,WNW,294,15.0,23.0,83,0.00,,,0.11,,2013-03-25 22:52:00,